Find Starlink 4602

NORAD ID: 53629 Int'l Des: 2022-104 Owner: SPXS Country: US Constellation: starlink operational
LEOCIRCULAR

リアルタイム位置

3D地球を読み込み中...

Starlink 4602について

説明を読み込み中...

次回通過

Passes for default location (London). Set your location on the main map for personalized predictions.

高度履歴

Loading altitude history...

軌道要素

1 53629U 22104AT 26133.49973946 .00000047 00000-0 21012-4 0 9991
2 53629 53.2172 302.8554 0001186 93.2269 266.8858 15.08833690205543
Epoch: May 13, 2026 • Age: 26 hours

現在のステータス

高度 545.4 km
速度 7.60 km/s
衛星直下点 52.86°N, 41.13°W
打ち上げ日 Aug 28, 2022
運用期間 3.7 years
タイプ internet

技術仕様

分類 Payload
質量 300.00 kg
乾燥質量 290.00 kg
総質量 300.00 kg
長さ 0.20 m
直径 2.80 m
スパン 9.00 m
形状 Box + pan
製造者 SPXS
バスタイプ Starlink
フェーズステータス In Orbit
所有者/国 SPXS/US

Most Searched